North Wilkesboro, NC

3:54 PM EDT on September 24, 2017 (GMT -0400)
Wilkes County

Weather History for KUKF - November, 2013

Change the Weather History Date:

Tuesday, November 5, 2013

  Actual Average Record
Temperature  
Mean Temperature 42 °F -  
Max Temperature 55 °F 62 °F 80 °F (1974)
Min Temperature 30 °F 36 °F 23 °F (1955)
Degree Days  
Heating Degree Days 22    
Moisture  
Dew Point 37 °F    
Average Humidity 78    
Maximum Humidity 100    
Minimum Humidity 54    
Precipitation  
Precipitation 0.02 in - - ()
Sea Level Pressure  
Sea Level Pressure 30.55 in    
Wind  
Wind Speed 1 mph (ENE)    
Max Wind Speed 6 mph    
Max Gust Speed -    
Visibility 9 miles    
Events Rain    
Averages and records for this station are not official NWS values.
T = Trace of Precipitation, MM = Missing Value Source: NWS Daily Summary

Daily Weather History Graph

Daily Weather History Graph

Search for Another Location

Airport or City:

Trip Planner

Search our weather history database for the weather conditions in past years. The results will help you decide how hot, cold, wet, or windy it might be!

Date:

Astronomy

Nov. 05, 2013 Rise Set
Actual Time 6:51 AM EST 5:24 PM EST
Civil Twilight 6:24 AM EST 5:50 PM EST
Nautical Twilight 5:54 AM EST 6:21 PM EST
Astronomical Twilight 5:23 AM EST 6:51 PM EST
Moon 9:02 AM EST (11/5) 7:26 PM EST (11/5)
Length of Visible Light 11h 26m
Length of Day
10h 32m
Waxing Crescent, 6% of the Moon is Illuminated
Nov 5
Waxing Crescent
Nov 10
First Quarter
Nov 17
Full
Nov 25
Last Quarter
Dec 2
New

Hourly Weather History & Observations

Time (EST) Temp. Windchill Dew Point Humidity Pressure Visibility Wind Dir Wind Speed Gust Speed Precip Events Conditions
12:15 AM 37.4 °F - 30.2 °F 75% 30.59 in 10.0 mi Calm Calm - N/A   Clear
12:35 AM 35.6 °F - 30.2 °F 81% 30.58 in 10.0 mi Calm Calm - N/A   Clear
12:55 AM 35.6 °F - 30.2 °F 81% 30.58 in 10.0 mi Calm Calm - N/A   Clear
1:15 AM 35.6 °F 32.8 °F 30.2 °F 81% 30.58 in 10.0 mi North 3.5 mph - N/A   Clear
1:35 AM 37.4 °F - 28.4 °F 70% 30.57 in 10.0 mi Calm Calm - N/A   Clear
1:55 AM 35.6 °F - 28.4 °F 75% 30.56 in 10.0 mi Calm Calm - N/A   Clear
2:15 AM 35.6 °F - 30.2 °F 81% 30.57 in 10.0 mi Calm Calm - N/A   Clear
2:35 AM 33.8 °F - 30.2 °F 87% 30.58 in 10.0 mi Calm Calm - N/A   Clear
2:55 AM 33.8 °F - 30.2 °F 87% 30.58 in 10.0 mi Calm Calm - N/A   Clear
3:15 AM 33.8 °F - 30.2 °F 87% 30.58 in 10.0 mi Calm Calm - N/A   Clear
3:35 AM 33.8 °F - 30.2 °F 87% 30.58 in 10.0 mi Calm Calm - N/A   Clear
3:55 AM 32.0 °F - 32.0 °F 100% 30.57 in 10.0 mi Calm Calm - N/A   Clear
4:15 AM 33.8 °F - 30.2 °F 87% 30.58 in 10.0 mi Calm Calm - N/A   Clear
4:35 AM 32.0 °F - 32.0 °F 100% 30.58 in 10.0 mi Calm Calm - N/A   Clear
4:55 AM 32.0 °F - 30.2 °F 93% 30.58 in 10.0 mi Calm Calm - N/A   Clear
5:15 AM 32.0 °F - 30.2 °F 93% 30.59 in 10.0 mi Calm Calm - N/A   Clear
5:35 AM 32.0 °F - 30.2 °F 93% 30.59 in 10.0 mi Calm Calm - N/A   Clear
5:55 AM 32.0 °F - 30.2 °F 93% 30.59 in 10.0 mi Calm Calm - N/A   Clear
6:15 AM 30.2 °F - 30.2 °F 100% 30.59 in 10.0 mi Calm Calm - N/A   Clear
6:35 AM 32.0 °F - 30.2 °F 93% 30.60 in 10.0 mi Calm Calm - N/A   Clear
6:55 AM 32.0 °F - 28.4 °F 87% 30.60 in 10.0 mi Calm Calm - N/A   Clear
7:15 AM 30.2 °F - 28.4 °F 93% 30.59 in 10.0 mi Calm Calm - N/A   Clear
7:35 AM 32.0 °F - 30.2 °F 93% 30.60 in 10.0 mi Calm Calm - N/A   Clear
7:55 AM 32.0 °F - 32.0 °F 100% 30.61 in 10.0 mi Calm Calm - N/A   Clear
8:15 AM 33.8 °F - 32.0 °F 93% 30.62 in 10.0 mi Calm Calm - N/A   Clear
8:35 AM 33.8 °F - 32.0 °F 93% 30.62 in 10.0 mi Calm Calm - N/A   Clear
8:55 AM 35.6 °F - 32.0 °F 87% 30.63 in 10.0 mi Calm Calm - N/A   Clear
9:15 AM 37.4 °F - 33.8 °F 87% 30.63 in 10.0 mi Calm Calm - N/A   Clear
9:35 AM 41.0 °F 39.0 °F 30.2 °F 65% 30.61 in 10.0 mi NNE 3.5 mph - N/A   Clear
9:55 AM 42.8 °F 41.1 °F 30.2 °F 61% 30.62 in 10.0 mi North 3.5 mph - N/A   Clear
10:15 AM 44.6 °F - 30.2 °F 57% 30.61 in 10.0 mi Calm Calm - N/A   Clear
10:35 AM 44.6 °F - 32.0 °F 61% 30.62 in 10.0 mi Calm Calm - N/A   Clear
10:55 AM 46.4 °F - 32.0 °F 57% 30.61 in 10.0 mi Calm Calm - N/A   Scattered Clouds
11:15 AM 46.4 °F - 32.0 °F 57% 30.60 in 10.0 mi Calm Calm - N/A   Mostly Cloudy
11:35 AM 48.2 °F - 33.8 °F 58% 30.59 in 10.0 mi Calm Calm - N/A   Scattered Clouds
11:55 AM 50.0 °F - 35.6 °F 58% 30.58 in 10.0 mi Calm Calm - N/A   Mostly Cloudy
12:15 PM 50.0 °F - 35.6 °F 58% 30.57 in 10.0 mi Calm Calm - N/A   Mostly Cloudy
12:35 PM 51.8 °F - 35.6 °F 54% 30.56 in 10.0 mi ENE 3.5 mph - N/A   Scattered Clouds
12:55 PM 53.6 °F - 37.4 °F 54% 30.55 in 10.0 mi Calm Calm - N/A   Scattered Clouds
1:15 PM 51.8 °F - 39.2 °F 62% 30.54 in 10.0 mi Calm Calm - N/A   Mostly Cloudy
1:35 PM 53.6 °F - 39.2 °F 58% 30.53 in 10.0 mi NNE 3.5 mph - N/A   Overcast
1:55 PM 53.6 °F - 41.0 °F 62% 30.52 in 10.0 mi Calm Calm - N/A   Overcast
2:15 PM 55.4 °F - 41.0 °F 58% 30.52 in 10.0 mi Calm Calm - N/A   Mostly Cloudy
2:35 PM 55.4 °F - 41.0 °F 58% 30.51 in 10.0 mi Calm Calm - N/A   Mostly Cloudy
2:55 PM 53.6 °F - 41.0 °F 62% 30.51 in 10.0 mi Calm Calm - N/A   Mostly Cloudy
3:15 PM 55.4 °F - 41.0 °F 58% 30.51 in 10.0 mi Calm Calm - N/A   Mostly Cloudy
3:35 PM 55.4 °F - 42.8 °F 63% 30.50 in 10.0 mi Calm Calm - N/A   Scattered Clouds
3:55 PM 55.4 °F - 42.8 °F 63% 30.50 in 10.0 mi SE 3.5 mph - N/A   Clear
4:15 PM 53.6 °F - 42.8 °F 67% 30.50 in 10.0 mi ESE 3.5 mph - N/A   Clear
4:35 PM 53.6 °F - 42.8 °F 67% 30.50 in 10.0 mi Calm Calm - N/A   Mostly Cloudy
4:55 PM 53.6 °F - 42.8 °F 67% 30.50 in 10.0 mi Calm Calm - N/A   Overcast
5:15 PM 53.6 °F - 42.8 °F 67% 30.50 in 10.0 mi Calm Calm - N/A   Overcast
5:35 PM 53.6 °F - 42.8 °F 67% 30.50 in 10.0 mi Calm Calm - N/A   Overcast
5:55 PM 53.6 °F - 42.8 °F 67% 30.50 in 10.0 mi Calm Calm - N/A   Overcast
6:15 PM 53.6 °F - 44.6 °F 72% 30.50 in 10.0 mi Calm Calm - N/A   Overcast
6:35 PM 53.6 °F - 44.6 °F 72% 30.51 in 10.0 mi Calm Calm - N/A   Overcast
6:55 PM 53.6 °F - 44.6 °F 72% 30.51 in 10.0 mi East 3.5 mph - N/A   Overcast
7:15 PM 51.8 °F - 44.6 °F 76% 30.51 in 10.0 mi Calm Calm - N/A   Overcast
7:35 PM 51.8 °F - 44.6 °F 76% 30.51 in 10.0 mi Calm Calm - N/A   Overcast
7:55 PM 51.8 °F - 44.6 °F 76% 30.51 in 10.0 mi Calm Calm - N/A   Overcast
8:15 PM 51.8 °F - 46.4 °F 82% 30.52 in 10.0 mi East 5.8 mph - N/A   Overcast
8:35 PM 50.0 °F - 46.4 °F 87% 30.52 in 7.0 mi East 5.8 mph - N/A   Overcast
8:55 PM 50.0 °F - 46.4 °F 87% 30.52 in 7.0 mi Calm Calm - N/A   Drizzle
9:15 PM 50.0 °F - 46.4 °F 87% 30.51 in 7.0 mi Calm Calm - N/A   Light Drizzle
9:35 PM 48.2 °F - 48.2 °F 100% 30.52 in 5.0 mi ENE 3.5 mph - N/A Rain Rain
9:55 PM 48.2 °F - 48.2 °F 100% 30.51 in 5.0 mi NE 3.5 mph - N/A   Light Drizzle
10:15 PM 48.2 °F - 48.2 °F 100% 30.51 in 4.0 mi East 3.5 mph - N/A   Drizzle
10:35 PM 46.4 °F 45.2 °F 46.4 °F 100% 30.51 in 3.0 mi East 3.5 mph - N/A   Drizzle
10:55 PM 46.4 °F 45.2 °F 46.4 °F 100% 30.51 in 3.0 mi ESE 3.5 mph - 0.01 in   Drizzle
11:15 PM 46.4 °F 45.2 °F 46.4 °F 100% 30.50 in 4.0 mi ENE 3.5 mph - N/A   Drizzle
11:35 PM 46.4 °F 45.2 °F 46.4 °F 100% 30.50 in 4.0 mi East 3.5 mph - 0.01 in Rain Rain
11:55 PM 46.4 °F - 46.4 °F 100% 30.50 in 4.0 mi Calm Calm - 0.01 in   Drizzle